Back to catalog

STARLINK-35839

AliveCommunicationsVLEO
NORAD 67169·PAYLOAD·🇺🇸 United States

Launched Dec 17, 2025 from Cape Canaveral Space Force Station

Loading…

Next Passes (next 24 hours)

TLE

FreshSource: CelesTrak SupGP

Epoch: Sep 14, 2026, 22:41 UTC

1 67169C 25303G   26257.94562500 -.00007474  00000+0 -27068-3 0  2571
2 67169  43.0013 322.3104 0001416 264.9401 131.3903 15.27585450    18

Track STARLINK-35839 in real time with AllMySat

Download on the App Store